ASL66K EKCH-LYBE

Flight info

Callsign ASL66K
Flight time 1h 56m
Altitude 37000
Route SIMEG Z493 BILRA DCT DESEN DCT MAKAL DCT MOMEP DCT EBORO DCT PARAK DCT TISAK
Aircraft A320/M-SDE3FGHIRWY/LB1

Departure

Time 2026-05-07 10:29
Airport Copenhagen Kastrup Airport (EKCH)

Arrival

Time 2026-05-07 12:26
Airport Belgrade Nikola Tesla Airport (LYBE)
Time Latitude Longitude Altitude Speed Heading
2026-05-07 09:50 55.62885 12.63937 17 ft 0 kts 12°
2026-05-07 10:16 55.62880 12.63935 17 ft 4 kts 12°
2026-05-07 10:16 55.62858 12.63927 17 ft 2 kts 11°
2026-05-07 10:16 55.62835 12.63927 17 ft 4 kts 319°
2026-05-07 10:16 55.62825 12.63953 17 ft 0 kts 283°
2026-05-07 10:17 55.62831 12.63910 17 ft 4 kts 283°
2026-05-07 10:17 55.62838 12.63864 17 ft 4 kts 283°
2026-05-07 10:17 55.62843 12.63824 17 ft 1 kts 283°
2026-05-07 10:19 55.62844 12.63817 17 ft 1 kts 283°
2026-05-07 10:19 55.62848 12.63789 17 ft 3 kts 284°
2026-05-07 10:19 55.62855 12.63738 17 ft 5 kts 282°
2026-05-07 10:20 55.62857 12.63663 17 ft 7 kts 271°
2026-05-07 10:20 55.62855 12.63566 17 ft 9 kts 267°
2026-05-07 10:20 55.62852 12.63464 17 ft 4 kts 267°
2026-05-07 10:20 55.62837 12.63414 17 ft 5 kts 232°
2026-05-07 10:21 55.62804 12.63368 19 ft 7 kts 213°
2026-05-07 10:21 55.62756 12.63319 17 ft 9 kts 191°
2026-05-07 10:21 55.62704 12.63384 16 ft 10 kts 124°
2026-05-07 10:21 55.62677 12.63505 16 ft 11 kts 98°
2026-05-07 10:22 55.62669 12.63650 17 ft 13 kts 94°
2026-05-07 10:22 55.62658 12.63817 17 ft 15 kts 109°
2026-05-07 10:22 55.62604 12.63980 17 ft 16 kts 123°
2026-05-07 10:22 55.62537 12.64159 17 ft 18 kts 123°
2026-05-07 10:23 55.62460 12.64354 17 ft 20 kts 129°
2026-05-07 10:23 55.62375 12.64566 17 ft 22 kts 123°
2026-05-07 10:23 55.62288 12.64801 18 ft 24 kts 123°
2026-05-07 10:23 55.62201 12.65037 17 ft 8 kts 125°
2026-05-07 10:24 55.62155 12.65103 17 ft 9 kts 175°
2026-05-07 10:24 55.62095 12.65051 19 ft 10 kts 213°
2026-05-07 10:24 55.62016 12.64960 18 ft 18 kts 213°
2026-05-07 10:24 55.61896 12.64822 17 ft 22 kts 213°
2026-05-07 10:25 55.61764 12.64671 17 ft 23 kts 213°
2026-05-07 10:25 55.61622 12.64508 17 ft 25 kts 213°
2026-05-07 10:25 55.61472 12.64335 18 ft 27 kts 213°
2026-05-07 10:25 55.61311 12.64150 17 ft 28 kts 213°
2026-05-07 10:26 55.61150 12.63964 17 ft 27 kts 213°
2026-05-07 10:26 55.60989 12.63781 19 ft 28 kts 213°
2026-05-07 10:26 55.60856 12.63629 17 ft 11 kts 213°
2026-05-07 10:26 55.60846 12.63617 18 ft 2 kts 213°
2026-05-07 10:27 55.60829 12.63597 19 ft 4 kts 209°
2026-05-07 10:27 55.60794 12.63595 18 ft 6 kts 158°
2026-05-07 10:27 55.60748 12.63672 17 ft 11 kts 133°
2026-05-07 10:27 55.60685 12.63795 20 ft 14 kts 126°
2026-05-07 10:28 55.60679 12.63837 18 ft 3 kts 87°
2026-05-07 10:28 55.60690 12.63885 20 ft 6 kts 55°
2026-05-07 10:28 55.60709 12.63920 18 ft 0 kts 42°
2026-05-07 10:28 55.60856 12.64142 19 ft 64 kts 41°
2026-05-07 10:29 55.61359 12.64925 18 ft 124 kts 41°
2026-05-07 10:29 55.62131 12.66113 84 ft 163 kts 41°
2026-05-07 10:29 55.62956 12.67397 788 ft 156 kts 40°
2026-05-07 10:30 55.64651 12.70015 1698 ft 176 kts 40°
2026-05-07 10:30 55.65635 12.71524 1900 ft 199 kts 39°
2026-05-07 10:30 55.66743 12.73180 2165 ft 219 kts 39°
2026-05-07 10:30 55.67979 12.75017 2490 ft 243 kts 39°
2026-05-07 10:31 55.69151 12.77301 3181 ft 253 kts 58°
2026-05-07 10:31 55.69755 12.80253 4023 ft 260 kts 81°
2026-05-07 10:31 55.69663 12.83444 4866 ft 265 kts 103°
2026-05-07 10:31 55.68837 12.86390 5689 ft 272 kts 127°
2026-05-07 10:32 55.67377 12.88542 6489 ft 279 kts 152°
2026-05-07 10:32 55.65562 12.89818 7290 ft 282 kts 159°
2026-05-07 10:32 55.63697 12.90984 8079 ft 285 kts 163°
2026-05-07 10:32 55.61720 12.91399 8810 ft 290 kts 184°
2026-05-07 10:33 55.59721 12.90639 9549 ft 292 kts 203°
2026-05-07 10:33 55.57861 12.89203 10272 ft 294 kts 198°
2026-05-07 10:33 55.55792 12.88925 10619 ft 312 kts 169°
2026-05-07 10:33 55.53769 12.90582 10778 ft 334 kts 139°
2026-05-07 10:34 55.52272 12.93787 11184 ft 344 kts 125°
2026-05-07 10:34 55.50843 12.97201 11780 ft 348 kts 128°
2026-05-07 10:34 55.49319 13.00544 12389 ft 351 kts 130°
2026-05-07 10:34 55.47731 13.03847 12993 ft 355 kts 131°
2026-05-07 10:35 55.46104 13.07149 13587 ft 358 kts 132°
2026-05-07 10:35 55.44455 13.10465 14166 ft 361 kts 132°
2026-05-07 10:35 55.42790 13.13818 14727 ft 365 kts 132°
2026-05-07 10:35 55.41116 13.17212 15274 ft 369 kts 132°
2026-05-07 10:36 55.39434 13.20644 15822 ft 372 kts 132°
2026-05-07 10:36 55.37744 13.24105 16345 ft 375 kts 132°
2026-05-07 10:36 55.36043 13.27593 16855 ft 378 kts 133°
2026-05-07 10:36 55.34329 13.31105 17370 ft 381 kts 133°
2026-05-07 10:37 55.32592 13.34661 17869 ft 384 kts 133°
2026-05-07 10:37 55.30847 13.38223 18374 ft 386 kts 133°
2026-05-07 10:37 55.29087 13.41803 18868 ft 389 kts 134°
2026-05-07 10:37 55.27308 13.45407 19368 ft 392 kts 134°
2026-05-07 10:38 55.25834 13.48387 19774 ft 394 kts 134°
2026-05-07 10:38 55.24032 13.52032 20257 ft 397 kts 134°
2026-05-07 10:38 55.22216 13.55708 20716 ft 399 kts 134°
2026-05-07 10:38 55.20394 13.59393 21145 ft 402 kts 134°
2026-05-07 10:39 55.18582 13.63054 21576 ft 404 kts 134°
2026-05-07 10:39 55.16735 13.66776 22000 ft 406 kts 134°
2026-05-07 10:39 55.14873 13.70512 22406 ft 409 kts 134°
2026-05-07 10:39 55.13001 13.74263 22801 ft 411 kts 135°
2026-05-07 10:40 55.11114 13.78036 23202 ft 413 kts 135°
2026-05-07 10:40 55.09222 13.81825 23590 ft 415 kts 134°
2026-05-07 10:40 55.07319 13.85632 23981 ft 417 kts 135°
2026-05-07 10:40 55.05405 13.89452 24366 ft 419 kts 135°
2026-05-07 10:41 55.03481 13.93279 24738 ft 421 kts 135°
2026-05-07 10:41 55.01552 13.97107 25105 ft 423 kts 135°
2026-05-07 10:41 54.99601 14.00976 25474 ft 424 kts 135°
2026-05-07 10:41 54.97649 14.04845 25837 ft 426 kts 135°
2026-05-07 10:42 54.95691 14.08719 26189 ft 427 kts 135°
2026-05-07 10:42 54.93719 14.12604 26527 ft 429 kts 135°
2026-05-07 10:42 54.91665 14.16351 26863 ft 427 kts 142°
2026-05-07 10:42 54.89334 14.19518 27186 ft 425 kts 149°
2026-05-07 10:43 54.86908 14.22456 27514 ft 427 kts 149°
2026-05-07 10:43 54.84466 14.25409 27848 ft 428 kts 149°
2026-05-07 10:43 54.82016 14.28368 28180 ft 430 kts 149°
2026-05-07 10:43 54.79562 14.31338 28499 ft 431 kts 149°
2026-05-07 10:44 54.77042 14.34144 28813 ft 429 kts 155°
2026-05-07 10:44 54.74360 14.36357 29186 ft 426 kts 159°
2026-05-07 10:44 54.71662 14.38478 29619 ft 424 kts 159°
2026-05-07 10:44 54.68981 14.40581 30040 ft 423 kts 159°
2026-05-07 10:45 54.66306 14.42676 30463 ft 421 kts 159°
2026-05-07 10:45 54.63640 14.44765 30865 ft 420 kts 160°
2026-05-07 10:45 54.61048 14.46798 31261 ft 419 kts 160°
2026-05-07 10:45 54.58403 14.48876 31654 ft 417 kts 160°
2026-05-07 10:46 54.55772 14.50941 32057 ft 416 kts 160°
2026-05-07 10:46 54.53136 14.53001 32433 ft 415 kts 160°
2026-05-07 10:46 54.50506 14.55051 32802 ft 415 kts 160°
2026-05-07 10:46 54.47881 14.57091 33181 ft 414 kts 161°
2026-05-07 10:47 54.45261 14.59124 33549 ft 413 kts 161°
2026-05-07 10:47 54.43533 14.60463 33784 ft 412 kts 161°
2026-05-07 10:47 54.40931 14.62478 34132 ft 411 kts 161°
2026-05-07 10:47 54.37450 14.65180 34559 ft 410 kts 161°
2026-05-07 10:48 54.35722 14.66519 34740 ft 411 kts 161°
2026-05-07 10:48 54.33118 14.68529 35012 ft 411 kts 160°
2026-05-07 10:48 54.30505 14.70539 35265 ft 412 kts 161°
2026-05-07 10:48 54.27892 14.72546 35499 ft 412 kts 160°
2026-05-07 10:49 54.25273 14.74558 35761 ft 412 kts 160°
2026-05-07 10:49 54.22625 14.76592 36012 ft 413 kts 160°
2026-05-07 10:49 54.20038 14.78577 36244 ft 413 kts 160°
2026-05-07 10:49 54.17419 14.80583 36464 ft 413 kts 160°
2026-05-07 10:50 54.14788 14.82597 36673 ft 414 kts 160°
2026-05-07 10:50 54.12157 14.84606 36898 ft 414 kts 160°
2026-05-07 10:50 54.09529 14.86607 37055 ft 413 kts 160°
2026-05-07 10:50 54.06889 14.88612 37078 ft 417 kts 160°
2026-05-07 10:51 54.01593 14.92630 37046 ft 419 kts 160°
2026-05-07 10:51 53.96276 14.96660 37045 ft 418 kts 160°
2026-05-07 10:52 53.90981 15.00671 37042 ft 417 kts 160°
2026-05-07 10:52 53.85637 15.04695 37042 ft 417 kts 160°
2026-05-07 10:53 53.80363 15.08654 37051 ft 418 kts 160°
2026-05-07 10:53 53.75046 15.12629 37057 ft 418 kts 160°
2026-05-07 10:54 53.69697 15.16619 37058 ft 418 kts 160°
2026-05-07 10:54 53.64409 15.20557 37061 ft 417 kts 160°
2026-05-07 10:55 53.59090 15.24514 37060 ft 418 kts 160°
2026-05-07 10:55 53.53777 15.28464 37059 ft 418 kts 160°
2026-05-07 10:56 53.48450 15.32410 37055 ft 418 kts 160°
2026-05-07 10:56 53.43175 15.36292 37052 ft 417 kts 161°
2026-05-07 10:57 53.37862 15.40189 37050 ft 418 kts 161°
2026-05-07 10:57 53.32505 15.44116 37048 ft 418 kts 161°
2026-05-07 10:58 53.27171 15.48008 37049 ft 418 kts 161°
2026-05-07 10:58 53.21841 15.51892 37047 ft 418 kts 161°
2026-05-07 10:59 53.16509 15.55779 37046 ft 418 kts 161°
2026-05-07 10:59 53.11179 15.59654 37044 ft 418 kts 161°
2026-05-07 11:00 53.05852 15.63499 37043 ft 417 kts 161°
2026-05-07 11:00 53.00534 15.67325 37044 ft 417 kts 161°
2026-05-07 11:01 52.95212 15.71153 37036 ft 417 kts 161°
2026-05-07 11:01 52.89893 15.74973 37039 ft 417 kts 161°
2026-05-07 11:02 52.84566 15.78781 37040 ft 416 kts 161°
2026-05-07 11:02 52.79277 15.82549 37035 ft 416 kts 161°
2026-05-07 11:03 52.73970 15.86329 37029 ft 415 kts 161°
2026-05-07 11:03 52.68660 15.90110 37028 ft 415 kts 161°
2026-05-07 11:04 52.63358 15.93871 37028 ft 415 kts 161°
2026-05-07 11:04 52.58055 15.97606 37028 ft 415 kts 161°
2026-05-07 11:05 52.52744 16.01336 37028 ft 414 kts 162°
2026-05-07 11:05 52.47443 16.05052 37030 ft 414 kts 161°
2026-05-07 11:06 52.42151 16.08757 37028 ft 414 kts 161°
2026-05-07 11:06 52.36856 16.12458 37024 ft 413 kts 162°
2026-05-07 11:07 52.31562 16.16140 37021 ft 413 kts 162°
2026-05-07 11:07 52.26281 16.19811 37021 ft 412 kts 162°
2026-05-07 11:08 52.21042 16.23445 37026 ft 412 kts 162°
2026-05-07 11:08 52.15762 16.27084 37029 ft 412 kts 162°
2026-05-07 11:09 52.10474 16.30729 37035 ft 412 kts 162°
2026-05-07 11:09 52.05191 16.34362 37033 ft 412 kts 162°
2026-05-07 11:10 51.99910 16.37990 37032 ft 412 kts 162°
2026-05-07 11:10 51.94631 16.41613 37030 ft 412 kts 162°
2026-05-07 11:11 51.89349 16.45211 37026 ft 412 kts 162°
2026-05-07 11:11 51.84068 16.48796 37024 ft 412 kts 162°
2026-05-07 11:12 51.78784 16.52388 37023 ft 412 kts 162°
2026-05-07 11:12 51.73493 16.55971 37024 ft 412 kts 162°
2026-05-07 11:13 51.68198 16.59551 37019 ft 412 kts 162°
2026-05-07 11:13 51.62877 16.63139 37016 ft 412 kts 162°
2026-05-07 11:14 51.57580 16.66690 37011 ft 412 kts 162°
2026-05-07 11:14 51.52282 16.70240 37010 ft 412 kts 162°
2026-05-07 11:15 51.46988 16.73777 37008 ft 412 kts 162°
2026-05-07 11:15 51.41699 16.77305 37004 ft 412 kts 162°
2026-05-07 11:16 51.36402 16.80830 37003 ft 413 kts 162°
2026-05-07 11:16 51.31102 16.84344 37001 ft 413 kts 162°
2026-05-07 11:17 51.25797 16.87854 36995 ft 413 kts 162°
2026-05-07 11:17 51.20487 16.91363 36992 ft 413 kts 162°
2026-05-07 11:18 51.15181 16.94858 36995 ft 412 kts 162°
2026-05-07 11:18 51.09878 16.98334 36991 ft 412 kts 163°
2026-05-07 11:19 51.04544 17.01832 36988 ft 412 kts 162°
2026-05-07 11:19 50.99276 17.05284 36986 ft 412 kts 163°
2026-05-07 11:20 50.93971 17.08742 36986 ft 412 kts 163°
2026-05-07 11:20 50.88627 17.12217 36986 ft 412 kts 163°
2026-05-07 11:21 50.83326 17.15658 36987 ft 412 kts 163°
2026-05-07 11:21 50.78027 17.19085 36989 ft 411 kts 163°
2026-05-07 11:22 50.72740 17.22506 36984 ft 411 kts 163°
2026-05-07 11:22 50.67471 17.25903 36983 ft 411 kts 163°
2026-05-07 11:23 50.62176 17.29303 36983 ft 411 kts 163°
2026-05-07 11:23 50.56871 17.32699 36984 ft 411 kts 163°
2026-05-07 11:24 50.51578 17.36087 36982 ft 411 kts 163°
2026-05-07 11:24 50.47141 17.38919 36980 ft 411 kts 163°
2026-05-07 11:25 50.41837 17.42290 36974 ft 411 kts 163°
2026-05-07 11:25 50.36539 17.45654 36971 ft 411 kts 163°
2026-05-07 11:26 50.31232 17.49016 36973 ft 411 kts 163°
2026-05-07 11:26 50.25930 17.52362 36970 ft 412 kts 163°
2026-05-07 11:27 50.20627 17.55774 36971 ft 412 kts 162°
2026-05-07 11:27 50.15359 17.59199 36969 ft 412 kts 162°
2026-05-07 11:28 50.10074 17.62630 36966 ft 411 kts 162°
2026-05-07 11:28 50.04784 17.66035 36964 ft 411 kts 163°
2026-05-07 11:29 49.99498 17.69423 36963 ft 411 kts 163°
2026-05-07 11:29 49.94200 17.72805 36963 ft 411 kts 163°
2026-05-07 11:30 49.88914 17.76177 36964 ft 411 kts 163°
2026-05-07 11:30 49.83622 17.79540 36956 ft 411 kts 163°
2026-05-07 11:31 49.78335 17.82891 36957 ft 411 kts 163°
2026-05-07 11:31 49.73045 17.86248 36958 ft 411 kts 163°
2026-05-07 11:32 49.65110 17.91268 36960 ft 411 kts 163°
2026-05-07 11:33 49.59789 17.94609 36960 ft 411 kts 163°
2026-05-07 11:33 49.54486 17.97935 36959 ft 411 kts 163°
2026-05-07 11:34 49.49193 18.01253 36960 ft 411 kts 163°
2026-05-07 11:34 49.44004 18.04503 36959 ft 412 kts 163°
2026-05-07 11:35 49.38660 18.07839 36961 ft 412 kts 163°
2026-05-07 11:35 49.33342 18.11146 36961 ft 413 kts 163°
2026-05-07 11:36 49.28021 18.14449 36974 ft 413 kts 163°
2026-05-07 11:36 49.22705 18.17813 36973 ft 415 kts 161°
2026-05-07 11:37 49.17482 18.21602 36978 ft 416 kts 159°
2026-05-07 11:37 49.12293 18.25537 36977 ft 417 kts 159°
2026-05-07 11:38 49.07067 18.29412 36965 ft 417 kts 160°
2026-05-07 11:38 49.01837 18.33207 36970 ft 416 kts 160°
2026-05-07 11:39 48.96597 18.36993 36974 ft 417 kts 160°
2026-05-07 11:39 48.91326 18.40816 36977 ft 418 kts 160°
2026-05-07 11:40 48.86076 18.44609 36978 ft 418 kts 160°
2026-05-07 11:40 48.80827 18.48401 36979 ft 418 kts 160°
2026-05-07 11:41 48.75570 18.52187 36982 ft 418 kts 160°
2026-05-07 11:41 48.71096 18.55390 36981 ft 418 kts 160°
2026-05-07 11:42 48.66289 18.58747 36980 ft 417 kts 161°
2026-05-07 11:42 48.60952 18.62146 36982 ft 416 kts 163°
2026-05-07 11:43 48.55597 18.65451 36980 ft 416 kts 163°
2026-05-07 11:43 48.50246 18.68806 36986 ft 417 kts 162°
2026-05-07 11:44 48.44899 18.72194 36990 ft 417 kts 162°
2026-05-07 11:44 48.39521 18.75597 36992 ft 417 kts 162°
2026-05-07 11:45 48.34161 18.78968 36994 ft 417 kts 162°
2026-05-07 11:45 48.28818 18.82319 36992 ft 417 kts 162°
2026-05-07 11:46 48.23454 18.85675 36994 ft 418 kts 162°
2026-05-07 11:46 48.18086 18.89032 36995 ft 418 kts 162°
2026-05-07 11:47 48.12680 18.92406 36996 ft 418 kts 162°
2026-05-07 11:47 48.07274 18.95776 36996 ft 418 kts 162°
2026-05-07 11:48 48.01894 18.99111 36998 ft 419 kts 162°
2026-05-07 11:48 47.96517 19.02440 37001 ft 419 kts 162°
2026-05-07 11:49 47.91083 19.05795 36999 ft 420 kts 162°
2026-05-07 11:49 47.85600 19.09168 36998 ft 420 kts 162°
2026-05-07 11:50 47.81067 19.11954 36999 ft 421 kts 162°
2026-05-07 11:50 47.75622 19.15294 36998 ft 421 kts 162°
2026-05-07 11:51 47.70196 19.18624 36999 ft 422 kts 162°
2026-05-07 11:51 47.64734 19.21966 37002 ft 422 kts 162°
2026-05-07 11:52 47.59326 19.25260 37004 ft 422 kts 162°
2026-05-07 11:52 47.53938 19.28532 37006 ft 423 kts 162°
2026-05-07 11:53 47.48480 19.31851 37007 ft 423 kts 162°
2026-05-07 11:53 47.42985 19.35177 37011 ft 424 kts 162°
2026-05-07 11:54 47.37558 19.38457 37015 ft 424 kts 162°
2026-05-07 11:54 47.32095 19.41758 37016 ft 424 kts 162°
2026-05-07 11:55 47.26631 19.45044 37016 ft 424 kts 162°
2026-05-07 11:55 47.21171 19.48320 37015 ft 424 kts 162°
2026-05-07 11:56 47.15706 19.51580 37016 ft 424 kts 162°
2026-05-07 11:56 47.10242 19.54849 37016 ft 424 kts 162°
2026-05-07 11:57 47.04746 19.58139 37015 ft 424 kts 162°
2026-05-07 11:57 46.99292 19.61380 37011 ft 424 kts 162°
2026-05-07 11:58 46.93859 19.64598 37010 ft 424 kts 162°
2026-05-07 11:58 46.88356 19.67851 37010 ft 424 kts 162°
2026-05-07 11:59 46.82891 19.71086 37011 ft 424 kts 162°
2026-05-07 11:59 46.77419 19.74316 37013 ft 424 kts 162°
2026-05-07 12:00 46.71940 19.77537 37015 ft 424 kts 162°
2026-05-07 12:00 46.66472 19.80749 37017 ft 424 kts 162°
2026-05-07 12:01 46.60994 19.83957 37017 ft 424 kts 162°
2026-05-07 12:01 46.55511 19.87152 37016 ft 425 kts 162°
2026-05-07 12:02 46.50041 19.90343 37018 ft 425 kts 162°
2026-05-07 12:02 46.44538 19.93556 36831 ft 425 kts 162°
2026-05-07 12:02 46.41791 19.95154 36577 ft 424 kts 162°
2026-05-07 12:03 46.39054 19.96738 36330 ft 424 kts 163°
2026-05-07 12:03 46.36305 19.98326 36076 ft 426 kts 163°
2026-05-07 12:03 46.33544 19.99908 35824 ft 428 kts 163°
2026-05-07 12:03 46.30766 20.01464 35576 ft 431 kts 163°
2026-05-07 12:04 46.27918 20.03038 35322 ft 433 kts 164°
2026-05-07 12:04 46.25137 20.04568 35072 ft 434 kts 164°
2026-05-07 12:04 46.22288 20.06036 34345 ft 435 kts 170°
2026-05-07 12:04 46.19293 20.06804 33538 ft 431 kts 181°
2026-05-07 12:05 46.16363 20.06701 33002 ft 422 kts 191°
2026-05-07 12:05 46.13529 20.05826 32496 ft 413 kts 201°
2026-05-07 12:05 46.10878 20.04203 31968 ft 405 kts 211°
2026-05-07 12:05 46.08540 20.02085 31463 ft 400 kts 215°
2026-05-07 12:06 46.06183 19.99876 30940 ft 397 kts 214°
2026-05-07 12:06 46.03900 19.97753 30443 ft 394 kts 214°
2026-05-07 12:06 46.01604 19.95629 29944 ft 391 kts 214°
2026-05-07 12:06 45.99328 19.93528 29440 ft 388 kts 214°
2026-05-07 12:07 45.97065 19.91437 28964 ft 384 kts 214°
2026-05-07 12:07 45.94829 19.89367 28464 ft 381 kts 214°
2026-05-07 12:07 45.92581 19.87283 27970 ft 378 kts 214°
2026-05-07 12:07 45.90403 19.85270 27503 ft 375 kts 214°
2026-05-07 12:08 45.88224 19.83262 27037 ft 373 kts 214°
2026-05-07 12:08 45.86042 19.81249 26579 ft 370 kts 214°
2026-05-07 12:08 45.83862 19.79237 26127 ft 367 kts 214°
2026-05-07 12:08 45.81720 19.77262 25687 ft 364 kts 214°
2026-05-07 12:09 45.79597 19.75305 25262 ft 362 kts 214°
2026-05-07 12:09 45.77492 19.73367 24844 ft 359 kts 214°
2026-05-07 12:09 45.75393 19.71441 24447 ft 355 kts 214°
2026-05-07 12:09 45.73323 19.69544 24034 ft 352 kts 214°
2026-05-07 12:10 45.71266 19.67660 23621 ft 349 kts 214°
2026-05-07 12:10 45.69234 19.65801 23212 ft 346 kts 213°
2026-05-07 12:10 45.67213 19.63952 22798 ft 343 kts 213°
2026-05-07 12:10 45.65216 19.62127 22379 ft 340 kts 213°
2026-05-07 12:11 45.63082 19.60604 21549 ft 350 kts 198°
2026-05-07 12:11 45.60621 19.60186 20608 ft 366 kts 178°
2026-05-07 12:11 45.58078 19.61131 19642 ft 383 kts 160°
2026-05-07 12:11 45.55646 19.62666 19197 ft 378 kts 159°
2026-05-07 12:12 45.53288 19.64153 18750 ft 373 kts 159°
2026-05-07 12:12 45.50893 19.65652 18249 ft 370 kts 159°
2026-05-07 12:12 45.48569 19.67097 17741 ft 366 kts 159°
2026-05-07 12:12 45.46264 19.68530 16944 ft 359 kts 160°
2026-05-07 12:13 45.44036 19.69912 16041 ft 355 kts 160°
2026-05-07 12:13 45.41938 19.71207 15185 ft 351 kts 159°
2026-05-07 12:13 45.39767 19.72546 14298 ft 347 kts 160°
2026-05-07 12:13 45.37678 19.73836 13428 ft 342 kts 159°
2026-05-07 12:14 45.35608 19.75118 12708 ft 335 kts 160°
2026-05-07 12:14 45.33694 19.76303 12328 ft 320 kts 160°
2026-05-07 12:14 45.31694 19.77540 11923 ft 306 kts 160°
2026-05-07 12:14 45.29753 19.78734 11523 ft 294 kts 160°
2026-05-07 12:15 45.27904 19.79868 11139 ft 287 kts 160°
2026-05-07 12:15 45.26055 19.80997 10740 ft 290 kts 160°
2026-05-07 12:15 45.24206 19.82125 10361 ft 290 kts 160°
2026-05-07 12:15 45.22391 19.83232 10107 ft 286 kts 160°
2026-05-07 12:16 45.20656 19.84296 9912 ft 281 kts 160°
2026-05-07 12:16 45.19114 19.85246 9809 ft 280 kts 160°
2026-05-07 12:16 45.17450 19.86270 9607 ft 282 kts 159°
2026-05-07 12:16 45.15838 19.87259 9213 ft 285 kts 159°
2026-05-07 12:17 45.14373 19.88156 8975 ft 282 kts 159°
2026-05-07 12:17 45.12697 19.89180 8649 ft 282 kts 159°
2026-05-07 12:17 45.11618 19.89839 8468 ft 280 kts 159°
2026-05-07 12:17 45.09958 19.90851 8162 ft 278 kts 159°
2026-05-07 12:18 45.08595 19.91685 7906 ft 278 kts 159°
2026-05-07 12:18 45.06957 19.92687 7609 ft 276 kts 159°
2026-05-07 12:18 45.05453 19.93605 7174 ft 273 kts 159°
2026-05-07 12:18 45.03829 19.94596 6634 ft 271 kts 159°
2026-05-07 12:19 45.02156 19.95624 6038 ft 270 kts 159°
2026-05-07 12:19 45.00612 19.96567 5599 ft 266 kts 159°
2026-05-07 12:19 44.98966 19.97571 5404 ft 250 kts 159°
2026-05-07 12:19 44.97817 19.98271 5317 ft 237 kts 159°
2026-05-07 12:20 44.96418 19.99175 5216 ft 224 kts 151°
2026-05-07 12:20 44.95271 20.00537 4931 ft 227 kts 131°
2026-05-07 12:20 44.94435 20.02329 4648 ft 228 kts 124°
2026-05-07 12:20 44.93770 20.03861 4401 ft 222 kts 124°
2026-05-07 12:21 44.93144 20.05298 4175 ft 217 kts 124°
2026-05-07 12:21 44.92418 20.06953 3920 ft 211 kts 124°
2026-05-07 12:21 44.91704 20.08575 3675 ft 204 kts 124°
2026-05-07 12:21 44.91100 20.09950 3442 ft 194 kts 123°
2026-05-07 12:22 44.90550 20.11201 3254 ft 190 kts 123°
2026-05-07 12:22 44.89906 20.12664 3009 ft 188 kts 123°
2026-05-07 12:22 44.89271 20.14104 2775 ft 187 kts 123°
2026-05-07 12:22 44.88615 20.15592 2534 ft 186 kts 123°
2026-05-07 12:23 44.87940 20.17123 2305 ft 185 kts 123°
2026-05-07 12:23 44.87289 20.18601 2063 ft 166 kts 123°
2026-05-07 12:23 44.86716 20.19899 1841 ft 149 kts 123°
2026-05-07 12:23 44.86180 20.21115 1650 ft 143 kts 123°
2026-05-07 12:24 44.85665 20.22278 1454 ft 140 kts 124°
2026-05-07 12:24 44.85150 20.23442 1289 ft 140 kts 123°
2026-05-07 12:24 44.84631 20.24619 1098 ft 139 kts 123°
2026-05-07 12:24 44.84119 20.25772 925 ft 138 kts 123°
2026-05-07 12:25 44.83604 20.26920 741 ft 139 kts 123°
2026-05-07 12:25 44.83103 20.28095 540 ft 139 kts 122°
2026-05-07 12:25 44.82590 20.29246 343 ft 139 kts 123°
2026-05-07 12:25 44.82123 20.30291 304 ft 105 kts 122°
2026-05-07 12:26 44.81816 20.30965 308 ft 56 kts 123°
2026-05-07 12:26 44.81666 20.31258 307 ft 25 kts 139°
2026-05-07 12:26 44.81518 20.31383 305 ft 19 kts 152°
2026-05-07 12:26 44.81470 20.31319 306 ft 13 kts 274°
2026-05-07 12:27 44.81516 20.31196 304 ft 15 kts 304°
2026-05-07 12:27 44.81576 20.31065 304 ft 17 kts 301°
2026-05-07 12:27 44.81642 20.30913 305 ft 19 kts 301°
2026-05-07 12:27 44.81713 20.30750 307 ft 20 kts 302°
2026-05-07 12:28 44.81793 20.30572 309 ft 22 kts 302°
2026-05-07 12:28 44.81881 20.30377 309 ft 25 kts 302°
2026-05-07 12:28 44.81979 20.30160 306 ft 27 kts 302°
2026-05-07 12:28 44.82086 20.29925 307 ft 29 kts 302°
2026-05-07 12:29 44.82190 20.29688 308 ft 15 kts 301°
2026-05-07 12:29 44.82192 20.29640 309 ft 5 kts 240°
2026-05-07 12:29 44.82172 20.29595 310 ft 6 kts 230°
2026-05-07 12:29 44.82114 20.29542 307 ft 13 kts 212°
2026-05-07 12:30 44.82094 20.29437 307 ft 13 kts 291°
2026-05-07 12:30 44.82132 20.29337 306 ft 9 kts 268°
2026-05-07 12:30 44.82094 20.29287 307 ft 3 kts 215°
2026-05-07 12:30 44.82090 20.29283 306 ft 0 kts 213°